Time,TemperatureF,DewpointF,PressureIn,WindDirection,WindDirectionDegrees,WindSpeedMPH,WindSpeedGustMPH,Humidity,HourlyPrecipIn,Conditions,Clouds,dailyrainin,SoftwareType,DateUTC
2013-03-06 00:06:00,29.8,27.2,30.04,NW,315,2.7,-999.0,90,-99.99,,,0.00,Acu-Link.com,2013-03-06 05:06:00,
2013-03-06 00:21:00,30.0,27.4,30.05,NNW,337,1.1,-999.0,90,-99.99,,,0.00,Acu-Link.com,2013-03-06 05:21:00,
2013-03-06 00:36:00,30.0,27.4,30.05,NE,45,0.0,-999.0,90,-99.99,,,0.00,Acu-Link.com,2013-03-06 05:36:00,
2013-03-06 00:52:00,30.2,27.9,30.05,WNW,292,0.0,-999.0,91,-99.99,,,0.00,Acu-Link.com,2013-03-06 05:52:00,
2013-03-06 01:12:00,30.2,27.9,30.05,WNW,292,0.0,-999.0,91,-99.99,,,0.00,Acu-Link.com,2013-03-06 06:12:00,
2013-03-06 01:27:00,30.6,28.6,30.05,WSW,247,0.0,-999.0,92,-99.99,,,0.00,Acu-Link.com,2013-03-06 06:27:00,
2013-03-06 01:42:00,30.9,28.9,30.05,WNW,292,4.7,-999.0,92,-99.99,,,0.00,Acu-Link.com,2013-03-06 06:42:00,
2013-03-06 01:57:00,32.0,29.7,30.05,NE,45,4.7,-999.0,91,-99.99,,,0.00,Acu-Link.com,2013-03-06 06:57:00,
2013-03-06 02:12:00,32.4,29.5,30.05,NW,315,4.2,-999.0,89,-99.99,,,0.00,Acu-Link.com,2013-03-06 07:12:00,
2013-03-06 02:28:00,32.4,29.3,30.04,WNW,292,3.7,-999.0,88,-99.99,,,0.00,Acu-Link.com,2013-03-06 07:28:00,
2013-03-06 02:43:00,32.2,29.1,30.04,NNW,337,4.7,-999.0,88,-99.99,,,0.00,Acu-Link.com,2013-03-06 07:43:00,
2013-03-06 02:58:00,32.0,29.1,30.04,West,270,1.7,-999.0,89,-99.99,,,0.00,Acu-Link.com,2013-03-06 07:58:00,
2013-03-06 03:13:00,31.6,29.3,30.04,WNW,292,1.7,-999.0,91,-99.99,,,0.00,Acu-Link.com,2013-03-06 08:13:00,
2013-03-06 03:28:00,31.3,29.3,30.04,NW,315,2.2,-999.0,92,-99.99,,,0.00,Acu-Link.com,2013-03-06 08:28:00,
2013-03-06 03:44:00,31.3,29.3,30.04,NW,315,5.8,-999.0,92,-99.99,,,0.00,Acu-Link.com,2013-03-06 08:44:00,
2013-03-06 03:59:00,31.3,29.3,30.05,NNW,337,1.1,-999.0,92,-99.99,,,0.00,Acu-Link.com,2013-03-06 08:59:00,
2013-03-06 04:23:00,31.3,29.3,30.05,NW,315,1.7,-999.0,92,-99.99,,,0.00,Acu-Link.com,2013-03-06 09:23:00,
2013-03-06 04:38:00,31.1,29.1,30.06,NNE,22,3.2,-999.0,92,-99.99,,,0.00,Acu-Link.com,2013-03-06 09:38:00,
2013-03-06 04:53:00,31.1,29.1,30.06,NNE,22,3.7,-999.0,92,-99.99,,,0.00,Acu-Link.com,2013-03-06 09:53:00,
2013-03-06 05:08:00,31.1,29.3,30.06,NNW,337,3.2,-999.0,93,-99.99,,,0.00,Acu-Link.com,2013-03-06 10:08:00,
2013-03-06 05:23:00,31.3,29.5,30.06,NNW,337,4.2,-999.0,93,-99.99,,,0.00,Acu-Link.com,2013-03-06 10:23:00,
2013-03-06 05:39:00,31.1,29.3,30.06,NNW,337,3.7,-999.0,93,-99.99,,,0.00,Acu-Link.com,2013-03-06 10:39:00,
2013-03-06 05:54:00,31.1,29.3,30.06,NW,315,3.7,-999.0,93,-99.99,,,0.00,Acu-Link.com,2013-03-06 10:54:00,
2013-03-06 06:10:00,31.3,29.3,30.07,NNW,337,4.7,-999.0,92,-99.99,,,0.00,Acu-Link.com,2013-03-06 11:10:00,
2013-03-06 06:25:00,31.3,29.3,30.07,NE,45,10.4,-999.0,92,-99.99,,,0.00,Acu-Link.com,2013-03-06 11:25:00,
2013-03-06 06:40:00,31.3,29.0,30.08,North,0,11.4,-999.0,91,-99.99,,,0.00,Acu-Link.com,2013-03-06 11:40:00,
2013-03-06 06:55:00,31.5,29.2,30.08,NNW,337,5.8,-999.0,91,-99.99,,,0.00,Acu-Link.com,2013-03-06 11:55:00,
2013-03-06 07:10:00,31.6,29.3,30.09,NNE,22,7.8,-999.0,91,-99.99,,,0.00,Acu-Link.com,2013-03-06 12:10:00,
2013-03-06 07:26:00,31.6,29.0,30.09,NNE,22,5.8,-999.0,90,-99.99,,,0.00,Acu-Link.com,2013-03-06 12:26:00,
2013-03-06 07:41:00,31.5,29.2,30.10,WNW,292,5.8,-999.0,91,-99.99,,,0.00,Acu-Link.com,2013-03-06 12:41:00,
2013-03-06 07:56:00,31.3,29.3,30.10,WNW,292,7.3,-999.0,92,-99.99,,,0.00,Acu-Link.com,2013-03-06 12:56:00,
2013-03-06 08:11:00,31.5,29.4,30.12,NNW,337,4.2,-999.0,92,-99.99,,,0.00,Acu-Link.com,2013-03-06 13:11:00,
2013-03-06 08:26:00,32.0,28.9,30.12,NNW,337,6.8,-999.0,88,-99.99,,,0.00,Acu-Link.com,2013-03-06 13:26:00,
2013-03-06 08:41:00,31.8,28.4,30.13,NNE,22,5.3,-999.0,87,-99.99,,,0.00,Acu-Link.com,2013-03-06 13:41:00,
2013-03-06 08:56:00,31.6,28.5,30.13,WNW,292,8.3,-999.0,88,-99.99,,,0.00,Acu-Link.com,2013-03-06 13:56:00,
2013-03-06 09:12:00,31.6,27.9,30.13,NNE,22,7.8,-999.0,86,-99.99,,,0.00,Acu-Link.com,2013-03-06 14:12:00,
2013-03-06 09:27:00,31.6,27.9,30.13,NW,315,10.4,-999.0,86,-99.99,,,0.00,Acu-Link.com,2013-03-06 14:27:00,
2013-03-06 09:42:00,32.0,28.3,30.12,NW,315,4.2,-999.0,86,-99.99,,,0.00,Acu-Link.com,2013-03-06 14:42:00,
2013-03-06 09:57:00,31.8,29.2,30.12,WNW,292,4.7,-999.0,90,-99.99,,,0.00,Acu-Link.com,2013-03-06 14:57:00,
2013-03-06 10:12:00,31.6,28.7,30.13,NNW,337,9.9,-999.0,89,-99.99,,,0.00,Acu-Link.com,2013-03-06 15:12:00,
2013-03-06 10:28:00,31.6,28.5,30.13,NNW,337,9.9,-999.0,88,-99.99,,,0.00,Acu-Link.com,2013-03-06 15:28:00,
2013-03-06 10:58:00,31.5,28.4,30.13,North,0,6.8,-999.0,88,-99.99,,,0.00,Acu-Link.com,2013-03-06 15:58:00,
2013-03-06 11:14:00,32.0,28.6,30.13,NW,315,5.3,-999.0,87,-99.99,,,0.00,Acu-Link.com,2013-03-06 16:14:00,
2013-03-06 11:29:00,32.2,27.3,30.13,WNW,292,3.7,-999.0,82,-99.99,,,0.00,Acu-Link.com,2013-03-06 16:29:00,
2013-03-06 11:44:00,32.2,27.0,30.12,NNW,337,6.3,-999.0,81,-99.99,,,0.00,Acu-Link.com,2013-03-06 16:44:00,
2013-03-06 11:59:00,31.8,26.3,30.12,NW,315,9.9,-999.0,80,-99.99,,,0.00,Acu-Link.com,2013-03-06 16:59:00,
2013-03-06 12:14:00,32.2,27.3,30.12,NNW,337,5.3,-999.0,82,-99.99,,,0.00,Acu-Link.com,2013-03-06 17:14:00,
2013-03-06 12:30:00,33.8,27.7,30.11,NNW,337,7.8,-999.0,78,-99.99,,,0.00,Acu-Link.com,2013-03-06 17:30:00,
2013-03-06 12:45:00,33.4,27.6,30.10,NE,45,3.7,-999.0,79,-99.99,,,0.00,Acu-Link.com,2013-03-06 17:45:00,
2013-03-06 13:00:00,32.5,26.7,30.10,NNE,22,4.7,-999.0,79,-99.99,,,0.00,Acu-Link.com,2013-03-06 18:00:00,
2013-03-06 13:15:00,32.7,27.5,30.11,NNE,22,4.2,-999.0,81,-99.99,,,0.00,Acu-Link.com,2013-03-06 18:15:00,
2013-03-06 13:30:00,33.1,28.2,30.11,North,0,4.7,-999.0,82,-99.99,,,0.00,Acu-Link.com,2013-03-06 18:30:00,
2013-03-06 13:45:00,33.3,28.7,30.11,NNW,337,6.3,-999.0,83,-99.99,,,0.00,Acu-Link.com,2013-03-06 18:45:00,
2013-03-06 14:00:00,33.1,28.2,30.11,NNW,337,10.9,-999.0,82,-99.99,,,0.00,Acu-Link.com,2013-03-06 19:00:00,
2013-03-06 14:15:00,33.3,28.1,30.11,ENE,67,5.8,-999.0,81,-99.99,,,0.00,Acu-Link.com,2013-03-06 19:15:00,
2013-03-06 14:30:00,33.3,28.4,30.11,WNW,292,4.7,-999.0,82,-99.99,,,0.00,Acu-Link.com,2013-03-06 19:30:00,
2013-03-06 14:46:00,33.4,27.9,30.10,NNW,337,4.7,-999.0,80,-99.99,,,0.00,Acu-Link.com,2013-03-06 19:46:00,
2013-03-06 15:01:00,33.8,27.7,30.10,NW,315,5.8,-999.0,78,-99.99,,,0.00,Acu-Link.com,2013-03-06 20:01:00,
2013-03-06 15:17:00,33.8,27.4,30.11,North,0,5.3,-999.0,77,-99.99,,,0.00,Acu-Link.com,2013-03-06 20:17:00,
2013-03-06 15:32:00,33.1,27.3,30.11,North,0,7.8,-999.0,79,-99.99,,,0.00,Acu-Link.com,2013-03-06 20:32:00,
2013-03-06 15:47:00,33.6,28.1,30.11,NNW,337,4.7,-999.0,80,-99.99,,,0.00,Acu-Link.com,2013-03-06 20:47:00,
2013-03-06 16:02:00,32.7,27.5,30.11,NNW,337,7.3,-999.0,81,-99.99,,,0.00,Acu-Link.com,2013-03-06 21:02:00,
2013-03-06 16:18:00,32.4,26.9,30.11,West,270,7.3,-999.0,80,-99.99,,,0.00,Acu-Link.com,2013-03-06 21:18:00,
2013-03-06 16:33:00,32.4,26.9,30.11,West,270,7.3,-999.0,80,-99.99,,,0.00,Acu-Link.com,2013-03-06 21:33:00,
2013-03-06 16:48:00,32.4,26.6,30.11,NNE,22,5.3,-999.0,79,-99.99,,,0.00,Acu-Link.com,2013-03-06 21:48:00,
2013-03-06 17:03:00,32.0,26.5,30.12,NW,315,4.7,-999.0,80,-99.99,,,0.00,Acu-Link.com,2013-03-06 22:03:00,
2013-03-06 17:18:00,31.3,26.2,30.13,NNW,337,4.7,-999.0,81,-99.99,,,0.00,Acu-Link.com,2013-03-06 22:18:00,
2013-03-06 17:33:00,31.3,25.9,30.13,WNW,292,5.8,-999.0,80,-99.99,,,0.00,Acu-Link.com,2013-03-06 22:33:00,
2013-03-06 17:49:00,31.3,24.9,30.13,NNW,337,5.3,-999.0,77,-99.99,,,0.00,Acu-Link.com,2013-03-06 22:49:00,
2013-03-06 18:04:00,31.1,25.1,30.14,NNW,337,5.3,-999.0,78,-99.99,,,0.00,Acu-Link.com,2013-03-06 23:04:00,
2013-03-06 18:19:00,31.1,24.4,30.15,ENE,67,5.8,-999.0,76,-99.99,,,0.00,Acu-Link.com,2013-03-06 23:19:00,
2013-03-06 18:34:00,30.9,24.2,30.16,NNW,337,9.4,-999.0,76,-99.99,,,0.00,Acu-Link.com,2013-03-06 23:34:00,
2013-03-06 18:49:00,30.9,23.9,30.16,WNW,292,4.2,-999.0,75,-99.99,,,0.00,Acu-Link.com,2013-03-06 23:49:00,
2013-03-06 19:04:00,30.9,23.3,30.16,NNE,22,3.2,-999.0,73,-99.99,,,0.00,Acu-Link.com,2013-03-07 00:04:00,
2013-03-06 19:19:00,30.7,23.4,30.15,NE,45,4.7,-999.0,74,-99.99,,,0.00,Acu-Link.com,2013-03-07 00:19:00,
2013-03-06 19:34:00,30.6,23.6,30.14,WNW,292,4.7,-999.0,75,-99.99,,,0.00,Acu-Link.com,2013-03-07 00:34:00,
2013-03-06 19:49:00,30.0,23.7,30.15,NNE,22,4.7,-999.0,77,-99.99,,,0.00,Acu-Link.com,2013-03-07 00:49:00,
2013-03-06 20:05:00,29.8,23.8,30.14,NNE,22,3.7,-999.0,78,-99.99,,,0.00,Acu-Link.com,2013-03-07 01:05:00,
2013-03-06 20:20:00,29.8,23.5,30.13,North,0,5.8,-999.0,77,-99.99,,,0.00,Acu-Link.com,2013-03-07 01:20:00,
2013-03-06 20:35:00,29.8,23.2,30.13,NNW,337,3.7,-999.0,76,-99.99,,,0.00,Acu-Link.com,2013-03-07 01:35:00,
2013-03-06 20:51:00,30.0,23.4,30.13,NNE,22,2.7,-999.0,76,-99.99,,,0.00,Acu-Link.com,2013-03-07 01:51:00,
2013-03-06 21:06:00,29.8,23.2,30.13,NNW,337,3.2,-999.0,76,-99.99,,,0.00,Acu-Link.com,2013-03-07 02:06:00,
2013-03-06 21:21:00,29.7,23.7,30.13,North,0,4.2,-999.0,78,-99.99,,,0.00,Acu-Link.com,2013-03-07 02:21:00,
2013-03-06 21:36:00,29.3,23.6,30.13,NNW,337,5.3,-999.0,79,-99.99,,,0.00,Acu-Link.com,2013-03-07 02:36:00,
2013-03-06 21:51:00,29.3,23.9,30.13,NNW,337,3.7,-999.0,80,-99.99,,,0.00,Acu-Link.com,2013-03-07 02:51:00,
2013-03-06 22:07:00,28.9,23.8,30.13,NNW,337,4.7,-999.0,81,-99.99,,,0.00,Acu-Link.com,2013-03-07 03:07:00,
2013-03-06 22:22:00,28.8,24.0,30.12,WNW,292,3.2,-999.0,82,-99.99,,,0.00,Acu-Link.com,2013-03-07 03:22:00,
2013-03-06 22:37:00,28.8,24.3,30.12,NNW,337,4.2,-999.0,83,-99.99,,,0.00,Acu-Link.com,2013-03-07 03:37:00,
2013-03-06 22:52:00,28.4,24.8,30.12,NW,315,3.7,-999.0,86,-99.99,,,0.00,Acu-Link.com,2013-03-07 03:52:00,
2013-03-06 23:07:00,28.2,24.6,30.12,WNW,292,2.7,-999.0,86,-99.99,,,0.00,Acu-Link.com,2013-03-07 04:07:00,
2013-03-06 23:23:00,28.2,24.3,30.12,WNW,292,3.7,-999.0,85,-99.99,,,0.00,Acu-Link.com,2013-03-07 04:23:00,
2013-03-06 23:38:00,28.2,24.0,30.11,WNW,292,2.7,-999.0,84,-99.99,,,0.00,Acu-Link.com,2013-03-07 04:38:00,
2013-03-06 23:53:00,28.2,23.7,30.11,NW,315,3.2,-999.0,83,-99.99,,,0.00,Acu-Link.com,2013-03-07 04:53:00,